Location: Potomac
(46.8816°N, 113.5795°W)
Time: 00:41:55
(UTC+00:00)

JY1SAT - Pass Details

Date: 03 July 2022
Orbit: 564 x 586 km, 97.6° (Epoch: 15 August)

Event Time Altitude Azimuth Distance (km) Brightness Sun altitude
Exits shadow 04:20:22 - 138° (SE) 1,998 ? -7.1°
Reaches altitude 10° 04:20:36 10° 137° (SE) 1,911 ? -7.1°
Maximum altitude 04:24:26 38° 70° (ENE) 911 ? -7.6°
Drops below altitude 10° 04:28:18 10° 2° (N) 1,922 ? -8.0°
Sets 04:30:34 0° 355° (N) 2,825 ? -8.3°
